Theta_e
349 346 350 352 352 351 351 352 352 352 352 352 352 352 352 353 352 352 352 353 353 353 353 354 354 353 353 354 354 354 353 353 353 352 352 352 352 352 352 351 351 352 351 352 351 350 350 350 349 347 345 345 344 345 344 343 342 342 343 342 340 340 343 346 346 344 344 343 344 344 344 344 342 342 343 342 341 343 344 341 343 340 340 341 341
349 349 350 353 351 351 352 352 352 353 353 353 353 353 353 353 353 353 353 354 354 354 354 354 354 354 354 354 353 353 353 353 353 352 352 352 352 352 352 351 351 350 351 351 351 350 350 348 347 346 346 345 344 344 343 342 342 342 344 346 347 346 344 344 346 345 345 346 344 343 342 342 341 341 341 341 341 342 342 343 342 340 338 339 340
350 349 352 351 351 352 352 352 353 353 353 354 354 354 354 354 354 354 354 354 354 354 354 354 354 354 353 353 353 353 353 352 352 352 351 351 351 351 351 351 350 350 350 350 350 350 347 347 347 347 347 347 346 345 343 341 342 341 345 346 345 345 345 345 345 346 346 345 345 345 344 343 343 342 342 342 341 340 340 340 340 339 337 338 338
348 350 351 351 351 351 352 352 352 352 353 353 354 354 355 355 355 355 354 355 355 354 354 354 353 353 353 353 353 353 353 352 352 352 351 351 351 352 351 351 350 351 351 350 349 348 348 347 347 348 348 347 346 346 344 343 342 341 341 344 344 344 343 343 344 344 346 346 346 347 345 343 343 345 345 345 344 341 340 339 337 337 338 339 339
349 349 349 350 351 351 351 352 352 353 353 354 354 354 354 354 355 355 355 354 354 354 354 354 354 354 353 353 352 353 352 352 352 352 352 351 351 351 350 351 350 350 350 350 350 349 349 349 349 349 348 347 347 346 345 344 343 341 341 343 343 342 341 341 339 340 341 347 348 352 342 341 344 345 346 346 344 342 341 340 339 339 339 339 338
347 347 349 351 350 351 351 351 352 353 353 354 354 354 354 354 355 354 354 354 354 354 354 354 354 353 353 353 353 353 352 352 352 352 351 351 350 350 351 351 350 350 350 350 349 349 348 349 349 348 348 348 347 345 345 344 343 343 343 343 342 341 339 338 339 340 340 342 347 347 342 342 342 343 344 345 343 341 339 338 339 340 340 339 339
347 350 350 349 349 351 351 352 352 353 353 353 354 354 354 354 354 354 354 354 354 354 353 354 353 353 353 353 353 352 352 352 351 351 350 350 350 350 351 351 350 349 349 350 349 348 349 348 348 348 347 347 347 346 345 344 344 343 343 342 341 340 338 338 338 340 340 339 342 339 340 341 342 340 342 342 341 339 338 338 339 340 340 341 340
350 350 351 348 349 350 351 352 351 352 353 353 353 353 353 353 354 354 353 354 354 354 354 354 353 352 353 353 352 352 352 351 350 350 349 348 348 349 349 350 349 349 349 348 348 348 347 348 347 346 345 345 345 346 344 343 343 343 343 342 341 339 338 340 340 341 341 341 341 340 341 342 341 341 341 341 340 339 338 339 339 339 338 338 337
348 349 349 347 350 350 351 351 351 351 353 353 353 353 353 353 353 353 353 354 354 353 353 353 353 352 352 352 351 351 351 350 350 349 349 348 348 347 347 348 348 347 346 346 346 346 346 346 345 344 343 344 345 345 344 344 344 343 344 342 342 340 341 339 341 341 341 341 340 340 341 339 341 339 338 338 337 338 342 340 340 338 336 337 335
348 349 349 348 349 351 351 351 351 352 353 353 353 353 353 353 353 353 353 353 353 353 353 352 353 352 351 351 351 351 351 350 348 347 347 347 347 347 347 346 346 346 346 346 345 345 344 344 343 343 345 345 345 346 346 344 344 344 343 343 341 342 341 340 341 343 342 338 337 341 343 350 339 336 336 335 337 341 340 340 339 337 335 335 334
350 349 349 349 349 350 351 351 351 352 352 352 352 353 353 353 353 353 353 353 353 353 353 352 352 351 351 351 350 350 350 349 347 346 345 344 345 345 345 344 344 344 344 345 345 345 344 343 343 345 346 346 347 347 346 346 344 344 344 342 342 343 341 343 342 343 337 335 336 335 336 345 343 340 338 338 339 339 339 338 337 336 336 335 336
349 350 349 349 350 350 351 351 351 352 352 352 352 353 353 352 352 353 353 353 353 353 351 351 350 351 351 350 350 350 349 348 346 346 345 345 344 343 343 342 343 343 343 343 343 344 344 342 343 345 347 348 347 348 347 345 345 344 344 343 341 343 341 343 341 342 337 338 340 342 340 341 341 339 338 338 337 337 336 337 335 335 336 335 335
350 350 348 347 347 350 350 351 351 352 352 352 352 352 352 352 353 353 353 352 353 352 351 351 350 350 350 349 349 348 348 347 346 345 345 344 345 345 344 344 343 342 342 342 342 343 343 343 343 345 347 348 348 348 347 347 345 346 344 343 343 342 343 344 343 338 335 339 338 339 342 342 339 339 338 337 336 336 335 335 334 334 334 335 334
350 348 347 348 347 351 350 351 351 352 352 352 352 353 352 352 353 353 353 352 352 352 351 350 350 349 348 348 348 347 347 347 346 345 344 345 344 344 343 343 342 342 342 342 342 343 342 342 343 345 348 347 347 348 348 347 346 345 345 344 344 343 344 344 347 335 337 338 337 336 344 341 337 337 337 337 336 335 335 335 334 336 335 335 335
350 348 348 348 348 348 352 351 351 352 352 352 353 353 353 353 352 352 352 352 352 351 351 350 350 349 348 348 347 347 347 346 345 345 345 345 344 342 341 341 342 341 341 341 342 342 342 342 343 344 346 347 347 347 347 347 346 345 345 345 343 344 342 342 340 336 335 336 339 339 339 338 339 336 337 336 334 335 334 334 334 334 333 333 334
352 351 348 348 349 348 348 351 351 352 352 352 352 352 352 352 352 352 351 351 351 350 350 350 349 349 348 347 346 346 345 345 345 345 344 344 345 344 343 341 342 342 341 341 342 342 341 341 342 344 346 346 347 347 347 346 345 345 344 344 344 344 343 344 343 338 338 338 334 336 337 336 338 337 337 336 333 334 334 333 334 333 330 335 333
352 351 348 349 349 349 348 348 350 352 351 351 351 351 351 352 351 352 351 351 351 350 350 350 349 348 348 347 346 346 345 345 345 345 344 344 344 344 343 342 343 342 341 342 341 341 341 341 341 344 345 346 347 347 346 346 346 345 345 344 344 344 345 345 343 337 333 333 336 338 342 339 338 337 338 335 334 334 334 334 334 332 333 334 334
351 349 348 349 348 348 349 348 348 349 350 351 349 349 350 351 351 351 351 351 350 350 350 350 349 348 347 347 347 346 346 346 345 345 344 344 344 345 344 343 341 341 342 341 341 341 340 341 342 344 346 346 347 346 346 346 345 345 344 343 344 342 345 345 345 338 336 339 336 340 341 340 339 337 338 336 335 334 330 333 333 332 332 332 331
350 349 349 348 347 348 347 348 351 348 347 347 348 350 349 349 350 350 350 350 350 350 349 349 348 348 347 346 346 346 345 345 344 344 344 343 343 345 344 343 343 340 341 341 340 340 341 341 341 343 345 346 347 346 345 345 345 344 343 343 343 344 344 344 345 338 340 340 339 340 337 341 337 337 338 335 334 332 332 333 331 332 331 332 332
349 349 349 348 348 348 348 349 350 349 349 348 347 349 349 348 349 350 350 350 349 349 349 348 349 348 348 347 347 348 347 347 345 347 346 345 344 345 343 345 343 341 340 340 340 339 340 340 342 341 344 346 347 346 346 345 343 343 343 343 344 345 342 345 336 335 338 332 342 337 339 338 338 336 336 334 332 332 332 332 328 331 332 331 331
348 349 349 349 350 351 348 348 349 349 349 348 348 348 348 348 348 349 349 348 349 349 348 349 349 349 348 349 348 351 347 351 349 347 345 346 344 343 343 343 343 342 340 339 340 339 340 340 340 341 343 345 347 346 345 345 344 342 344 343 344 342 346 340 340 339 338 338 342 334 339 338 338 334 334 334 334 332 333 331 330 331 330 331 331
344 345 349 349 348 347 347 347 347 347 347 347 347 346 347 348 348 349 349 350 349 350 350 349 350 349 349 346 348 344 344 344 345 346 347 348 346 344 343 343 344 343 341 339 340 340 338 339 339 340 342 345 346 347 346 344 343 343 343 344 343 344 343 340 336 338 334 340 339 338 338 338 337 335 334 334 333 332 331 330 330 331 331 331 331
343 344 345 347 348 346 347 347 347 346 346 345 346 346 345 344 344 346 344 345 348 349 346 346 346 345 345 343 344 346 348 347 347 345 348 349 347 345 344 344 344 344 343 343 340 341 340 337 340 340 340 342 345 346 345 344 344 344 344 344 344 345 344 341 340 339 338 336 340 340 338 338 337 336 335 334 334 333 331 329 330 331 331 331 331
342 343 344 347 347 345 346 347 346 347 345 345 345 346 342 344 344 344 342 345 345 345 342 343 344 345 343 346 347 349 348 350 348 346 346 346 346 345 344 344 344 344 344 344 342 341 340 339 339 340 341 342 345 343 342 343 347 344 344 344 345 341 342 342 339 341 339 338 339 341 340 336 336 337 335 335 334 333 331 331 332 331 331 331 331
343 344 344 345 345 346 345 344 345 346 344 343 343 340 340 341 342 343 345 343 343 343 343 344 344 344 346 349 347 348 349 349 347 347 349 348 348 348 347 347 346 345 345 348 345 341 338 331 334 337 337 338 341 340 340 338 344 344 343 342 343 342 341 341 339 336 340 343 342 340 341 338 337 337 337 336 335 333 332 331 332 332 331 331 330
344 341 342 344 344 343 343 343 344 344 342 341 341 340 342 341 342 343 344 343 342 342 344 344 344 348 347 347 349 350 350 348 347 346 345 348 350 349 348 349 349 346 343 345 344 344 344 338 334 332 333 339 340 341 340 338 339 341 338 343 343 343 341 340 338 341 341 341 344 342 340 339 338 338 337 338 336 335 333 332 331 333 332 331 330
341 342 342 343 343 343 342 344 340 340 341 340 341 340 340 341 342 343 342 342 343 344 344 345 347 347 348 348 349 349 348 347 347 351 351 348 348 349 349 351 347 347 348 345 344 344 343 344 340 338 335 335 337 339 338 338 338 338 340 341 341 342 342 341 339 339 341 340 343 343 342 339 340 338 337 338 336 334 334 332 333 332 332 331 331
341 340 340 340 340 341 342 341 341 340 342 341 341 339 341 342 344 341 342 341 344 344 346 347 348 347 348 350 349 348 347 346 349 350 349 350 348 349 348 347 345 347 349 348 344 343 343 343 344 342 338 335 335 337 336 336 341 341 338 338 340 340 342 340 341 341 339 340 342 343 341 341 340 338 338 338 336 336 335 333 333 333 333 332 331
337 337 338 338 339 340 340 340 341 341 342 342 340 340 342 343 343 344 344 345 347 347 348 349 349 348 348 348 350 350 348 349 349 348 349 350 350 350 349 347 348 347 348 347 346 345 343 344 343 341 341 339 339 340 338 338 341 342 340 340 339 340 341 340 341 339 339 342 342 344 343 342 339 339 340 338 339 337 335 333 333 333 333 333 331
336 337 337 338 339 340 340 342 341 342 343 344 343 341 344 344 344 346 346 347 347 348 347 347 348 350 349 349 349 349 347 347 349 349 349 350 350 350 350 348 348 348 349 348 347 346 345 343 342 341 338 340 338 339 339 340 340 341 339 340 340 338 339 338 339 340 339 340 342 348 343 341 339 341 338 340 340 339 337 335 334 334 334 334 333
337 336 337 338 339 342 341 342 343 345 345 344 345 346 346 344 345 346 344 346 347 349 350 351 350 350 351 349 348 348 349 350 350 349 350 349 349 350 349 349 348 349 348 347 349 348 348 345 345 342 342 340 339 339 337 339 339 339 340 340 340 339 339 342 338 337 338 338 339 345 341 341 341 339 341 339 339 340 339 337 335 335 334 335 334
336 337 338 340 341 342 343 344 344 345 345 345 346 346 346 345 347 347 347 348 349 349 349 350 350 349 349 349 349 349 349 352 351 350 350 348 348 348 347 348 348 348 349 346 344 347 347 347 347 347 346 343 340 340 341 339 338 337 336 336 337 338 337 338 336 336 338 338 341 339 343 340 340 342 340 339 339 339 339 339 337 336 335 335 335
337 340 340 342 344 344 345 346 347 347 346 345 346 347 346 342 345 345 346 343 343 347 348 349 350 349 349 349 349 350 352 351 351 349 348 349 349 349 347 347 349 349 350 348 347 347 348 347 347 348 346 345 344 342 339 340 340 339 340 339 339 338 338 338 338 339 338 339 339 349 343 343 339 340 340 340 339 338 338 339 338 337 336 335 335
337 340 343 344 345 345 346 348 348 348 348 348 346 342 344 347 344 345 346 344 347 349 349 351 349 349 350 350 350 350 350 350 351 351 350 350 350 348 348 347 348 347 348 350 348 347 346 345 344 344 343 343 341 341 339 339 339 341 342 341 341 342 341 340 340 340 340 341 340 342 340 343 347 343 338 341 340 338 338 338 339 338 337 336 335
339 342 345 346 345 346 348 348 348 348 346 346 345 342 345 344 343 347 348 349 351 349 349 349 350 350 351 351 352 350 350 351 350 350 350 349 347 347 347 347 349 350 347 348 348 347 345 346 343 342 343 342 342 340 339 338 338 338 341 343 340 340 342 341 341 340 340 340 340 341 343 342 341 344 342 341 340 339 337 338 337 338 337 336 336
341 342 343 346 344 346 347 346 346 346 345 344 344 344 344 343 344 347 349 351 349 349 349 350 349 349 349 350 350 349 351 351 350 350 349 349 347 345 345 349 349 348 347 348 347 342 343 345 345 343 341 340 340 338 339 339 339 339 341 341 340 341 343 341 342 340 340 340 338 341 343 342 342 341 342 343 343 339 338 337 337 337 338 337 336
339 342 340 343 344 346 342 342 343 342 345 341 342 342 341 343 345 349 349 350 347 347 348 350 349 349 348 347 350 351 350 349 349 349 349 349 347 346 348 345 346 344 342 343 344 343 342 340 339 341 344 342 341 338 339 338 338 339 340 342 342 342 341 342 342 343 342 341 339 339 339 340 342 341 347 345 341 342 338 337 337 336 337 338 337
339 340 338 337 340 341 339 340 343 343 342 338 340 340 342 344 347 348 347 346 347 347 347 347 347 347 348 346 349 349 349 348 349 348 348 348 346 345 345 344 344 344 343 344 343 344 343 341 338 340 338 339 341 338 338 337 338 339 339 339 341 341 342 342 342 341 342 341 340 340 339 342 343 340 342 342 340 341 341 338 337 336 337 335 335
336 334 334 337 336 337 338 338 338 339 335 339 340 339 340 343 347 347 345 345 346 347 347 346 347 348 347 348 348 347 347 348 348 348 348 345 343 343 344 345 344 344 342 342 340 342 342 339 338 336 337 339 340 338 339 339 340 339 337 341 340 343 344 344 343 342 342 342 341 340 339 339 340 339 342 342 342 343 341 340 337 336 334 335 336
334 335 335 335 333 335 338 335 338 340 339 340 338 339 343 343 341 342 342 342 343 342 345 344 346 345 346 346 345 346 346 347 347 346 346 345 344 345 345 344 344 343 343 340 341 342 342 341 338 336 335 335 338 337 339 336 337 339 336 339 339 342 341 342 343 341 342 342 342 342 340 339 339 341 341 343 339 342 342 341 340 339 339 336 334
334 335 333 333 333 336 335 335 338 339 337 337 335 340 340 342 342 339 340 341 340 342 341 342 342 342 343 343 343 343 344 343 343 345 344 344 344 344 343 344 343 342 341 340 339 339 340 340 338 338 337 334 334 336 338 339 335 333 336 337 338 341 342 340 340 338 339 340 340 340 340 339 339 339 340 346 343 340 341 343 342 339 339 340 337
332 334 334 333 335 335 336 335 336 334 336 337 341 338 341 341 340 339 339 338 338 338 338 340 340 341 342 342 342 342 342 342 342 342 342 342 342 341 341 340 340 339 338 339 338 339 339 339 338 336 337 335 335 337 337 336 332 329 328 329 333 336 338 340 338 337 338 337 340 340 340 338 337 338 340 339 341 340 338 341 340 344 340 339 339
335 335 336 334 334 336 335 331 336 335 337 338 342 338 343 342 340 339 338 336 339 340 339 339 339 338 339 340 340 340 339 339 339 339 339 338 338 338 337 337 339 339 338 338 338 337 337 337 336 334 333 336 335 337 339 337 330 332 331 328 326 324 330 332 337 337 338 338 339 338 337 336 336 336 337 339 340 339 337 342 339 341 338 342 340
335 333 335 334 335 335 334 333 335 335 334 338 339 342 341 341 341 340 340 338 336 338 338 337 337 336 335 337 337 337 336 336 335 335 335 335 336 336 336 336 335 336 335 336 336 336 336 336 336 336 336 333 332 333 337 336 334 330 324 323 323 325 320 324 327 331 334 333 334 335 335 333 334 336 336 336 337 338 339 340 339 342 342 340 339
332 333 334 334 333 332 334 335 335 338 336 338 339 341 340 339 338 339 338 337 337 335 334 333 333 333 333 333 332 333 332 330 330 329 330 331 331 332 333 334 334 334 333 332 333 333 333 333 333 333 333 331 330 333 335 336 335 335 329 323 323 320 321 325 327 328 334 333 332 332 333 333 333 332 332 333 335 336 336 337 339 339 342 341 341
330 331 333 334 332 335 336 335 335 337 338 341 341 340 339 337 336 334 333 332 331 331 329 330 330 329 328 331 330 328 328 327 326 326 327 327 328 328 329 329 330 329 329 329 330 329 330 330 331 331 331 330 328 328 329 334 334 334 334 331 328 322 322 326 325 320 331 331 332 331 332 333 334 333 334 333 334 334 336 336 338 340 340 342 344
328 330 331 331 335 336 336 336 336 336 337 339 339 339 337 336 335 334 334 332 329 329 331 330 329 328 329 328 328 328 327 327 328 328 326 326 327 327 327 327 327 325 326 328 326 326 326 328 329 330 329 328 327 324 325 327 330 331 330 331 332 331 329 324 321 324 321 326 329 329 330 331 332 333 332 332 333 333 336 336 337 337 340 343 340
328 330 331 332 333 333 333 334 334 334 336 337 338 338 335 334 333 332 331 330 329 327 327 327 328 327 326 325 325 325 325 325 325 325 324 324 325 326 326 327 325 325 324 325 325 325 325 326 326 328 327 327 326 323 323 325 322 323 326 327 327 330 330 330 329 323 322 319 321 328 328 329 332 333 333 333 333 334 335 337 336 336 339 338 339
329 329 330 331 331 331 331 332 332 332 333 334 334 333 334 334 331 330 328 328 328 327 326 326 325 326 324 324 324 323 322 323 322 322 323 322 323 323 324 323 322 322 322 324 324 323 324 325 325 324 323 323 324 323 322 321 321 320 321 322 324 325 325 327 328 326 322 319 319 322 324 330 331 332 332 334 334 335 334 334 335 335 337 337 340
330 330 329 328 328 328 328 327 327 329 330 331 331 332 332 332 331 330 327 325 326 326 326 325 324 324 321 321 321 320 320 320 321 320 320 320 320 320 320 319 320 320 320 321 320 320 321 323 322 321 321 320 320 320 320 319 318 320 320 319 319 320 321 321 322 322 321 322 318 319 322 323 321 325 331 330 332 333 333 334 335 335 336 337 336
328 328 327 327 328 327 327 326 327 327 329 329 329 328 329 328 327 327 327 326 325 325 323 322 322 322 321 320 319 318 318 318 319 318 318 319 319 319 319 319 319 319 319 319 319 319 320 320 320 321 320 318 318 318 319 317 317 317 317 318 317 317 316 315 316 317 316 315 315 316 318 320 320 320 325 328 329 330 330 332 333 333 334 336 337
Wind_Speed
14 15 14 16 16 15 16 16 16 16 17 17 15 15 15 15 14 14 13 13 12 12 11 10 11 11 12 12 11 11 11 11 11 11 12 12 12 12 12 13 13 13 12 14 16 16 15 15 15 15 14 14 14 13 12 11 11 11 11 12 11 11 13 14 13 13 11 12 13 12 12 12 11 10 9 10 10 12 13 3 6 9 8 9 10
16 14 12 13 15 16 16 16 16 16 17 17 16 16 15 15 14 13 13 12 12 11 11 11 11 11 11 11 12 12 11 11 11 11 11 11 12 12 12 12 13 13 14 15 16 15 15 15 15 15 15 14 13 13 12 11 11 11 11 11 12 12 11 12 13 12 13 12 12 13 12 12 12 10 10 10 11 13 14 17 13 8 7 10 10
16 14 12 15 16 17 16 16 15 16 16 16 16 15 15 14 13 13 13 12 11 12 11 10 11 11 11 12 12 12 12 12 12 11 11 11 11 12 12 12 13 12 13 15 15 15 15 15 14 14 14 13 12 12 11 11 11 11 12 11 10 10 10 9 10 10 10 13 14 14 14 13 12 11 11 11 12 13 14 15 13 11 8 10 10
16 13 13 15 16 16 14 15 15 16 15 16 16 15 14 14 13 13 13 13 13 12 11 11 11 11 11 12 12 12 13 13 13 12 12 11 11 12 13 13 13 13 14 13 14 14 13 13 13 14 14 13 12 11 11 11 11 9 11 12 10 9 8 7 5 5 7 8 12 15 9 9 10 12 12 12 12 12 12 11 10 10 10 11 11
16 13 13 13 14 15 15 15 13 16 16 16 16 16 15 14 14 13 13 13 12 12 12 11 12 11 12 13 13 13 14 14 14 14 14 13 12 12 13 13 13 13 13 13 13 13 12 13 14 13 13 12 12 11 10 10 11 10 10 10 9 8 7 4 1 3 6 7 10 8 9 9 9 12 12 12 12 11 10 9 9 9 9 9 9
15 13 12 12 13 15 14 14 15 15 15 16 16 16 16 15 15 14 14 14 13 12 12 12 12 12 12 13 13 14 15 15 15 15 15 14 13 13 12 13 13 12 13 12 11 12 11 12 12 11 11 10 10 10 9 9 10 10 9 8 8 6 4 2 3 6 5 8 10 7 7 7 8 8 11 11 11 10 9 8 9 9 8 7 10
16 12 12 12 11 13 14 13 15 14 15 16 16 16 15 15 15 14 14 13 13 12 13 13 12 13 13 14 15 15 15 15 15 15 14 14 13 12 13 13 12 12 12 12 11 10 11 10 10 9 9 9 8 9 8 8 9 9 9 8 6 5 2 3 5 6 9 6 5 3 5 8 8 6 9 9 8 7 7 8 10 9 10 10 9
13 12 12 12 12 15 14 13 14 14 15 15 16 16 16 15 15 14 14 13 13 13 13 13 14 14 14 15 15 15 15 15 14 14 14 14 13 13 13 12 11 11 11 11 10 10 9 9 9 8 7 7 7 7 7 7 7 7 7 7 6 3 1 6 10 8 10 7 4 3 4 6 8 7 7 7 7 8 8 6 9 9 11 10 8
14 15 13 12 14 17 14 13 12 15 16 16 15 15 15 15 15 14 13 13 13 14 14 14 14 14 14 14 14 14 14 13 13 13 13 13 12 12 11 11 11 10 10 9 10 9 8 8 7 7 5 5 5 5 6 6 7 6 6 5 4 3 6 7 10 11 10 3 3 5 5 7 8 7 8 6 5 7 11 6 10 9 10 10 10
14 14 13 11 13 15 13 13 13 13 15 16 15 15 15 15 14 14 13 14 14 14 14 14 14 14 13 13 13 13 14 13 13 13 12 11 11 11 11 10 9 8 8 9 9 8 7 6 6 4 5 4 4 4 5 6 6 6 5 4 3 4 5 9 10 11 9 6 6 6 9 11 9 8 8 6 7 11 10 13 12 11 9 7 6
15 13 12 13 16 13 12 12 13 13 15 16 15 15 15 14 14 14 14 14 15 14 14 13 13 13 13 13 13 13 12 12 12 12 11 11 10 10 10 10 9 8 7 7 7 7 7 6 4 5 4 4 4 4 5 6 6 5 5 4 4 6 7 9 10 9 2 5 7 6 6 9 8 7 8 8 9 8 9 10 9 8 7 6 9
14 14 13 12 16 12 13 12 12 13 15 15 15 14 15 14 14 13 13 14 15 14 13 12 12 12 12 12 12 12 12 12 12 11 11 10 10 10 9 9 8 8 7 6 6 6 6 4 4 4 4 3 3 5 6 7 6 5 4 3 4 6 8 10 9 6 3 6 4 5 8 8 9 8 7 8 7 8 8 8 7 7 7 7 6
16 15 14 13 14 13 13 11 13 15 15 15 14 14 14 13 13 14 14 13 14 14 13 12 11 11 11 11 11 11 11 10 10 10 10 10 9 9 9 8 8 7 7 6 6 6 5 4 3 3 4 2 4 5 6 6 6 5 4 3 5 7 11 12 8 4 5 3 3 4 7 8 8 8 6 6 5 6 7 7 5 5 5 7 6
15 16 14 13 12 15 12 11 11 13 14 14 13 12 12 12 12 13 13 13 13 13 12 11 10 11 11 11 11 10 10 10 10 9 9 9 9 8 8 8 7 6 6 6 5 5 4 2 3 3 3 3 3 5 6 6 5 4 4 4 6 9 10 11 14 4 2 3 5 6 7 7 7 7 6 6 7 5 5 6 5 6 6 6 6
16 17 15 14 14 14 15 11 11 11 11 11 11 11 12 13 14 13 13 14 14 12 12 10 10 10 11 11 10 9 9 9 9 8 8 8 8 8 7 6 6 6 5 5 5 4 3 2 3 3 3 3 4 5 5 5 4 4 4 5 7 9 10 8 7 4 4 1 1 4 8 6 6 5 6 5 3 4 5 4 4 5 4 5 6
17 17 17 14 15 14 14 14 12 12 13 13 12 12 13 13 13 14 13 12 13 12 11 10 10 10 10 10 9 10 9 9 9 8 8 8 8 8 8 7 6 5 5 5 4 3 2 2 2 3 2 3 5 4 5 5 3 4 4 5 8 10 10 10 7 3 1 2 3 3 6 7 8 4 5 5 3 3 5 3 4 4 2 6 3
15 16 16 16 16 14 13 13 14 16 15 14 13 13 12 12 13 14 13 13 13 12 10 10 9 9 10 9 9 9 9 9 8 8 7 8 7 7 7 7 6 5 4 4 3 3 2 1 2 2 2 2 5 5 4 4 4 3 4 6 8 10 11 11 7 3 3 4 2 3 7 7 7 4 4 4 3 2 3 4 4 4 3 5 4
14 15 15 16 15 15 13 14 14 13 13 13 13 12 12 12 13 13 13 12 12 11 10 10 9 8 9 8 9 8 8 8 8 7 7 7 7 7 7 7 6 5 4 3 3 2 1 1 2 2 2 2 5 5 5 5 4 3 3 6 9 10 12 12 8 3 3 3 2 5 7 9 8 3 4 4 3 2 1 4 4 3 4 2 2
12 13 14 14 14 14 14 13 13 13 13 10 10 11 12 12 12 14 14 13 11 10 10 9 9 8 7 7 8 9 8 8 8 7 7 6 8 8 7 6 6 5 4 3 1 1 1 1 1 2 0 3 5 6 5 4 4 3 3 6 9 12 13 10 9 2 3 2 1 7 7 8 6 4 4 1 3 2 1 2 0 2 2 3 4
11 12 12 12 12 13 13 12 12 12 11 10 11 11 11 11 11 13 14 13 11 10 10 9 9 8 7 7 7 7 9 8 9 9 8 7 4 6 6 6 6 5 4 4 2 1 1 1 1 1 0 4 6 6 6 5 4 4 4 8 11 12 8 8 4 6 3 4 3 7 10 8 6 4 3 1 2 1 1 0 1 0 0 2 2
9 10 9 10 11 10 12 10 12 12 11 12 11 11 11 11 11 12 13 12 11 11 11 12 12 9 8 10 9 8 4 7 9 7 10 6 8 7 5 6 5 5 4 4 3 2 2 2 1 2 1 4 7 7 6 6 7 4 7 10 10 8 8 4 5 2 3 3 4 7 11 9 4 1 0 1 1 1 5 3 0 1 1 0 2
10 10 9 10 11 10 11 11 11 13 12 10 9 8 9 11 9 10 9 10 10 10 10 8 9 7 8 7 6 4 3 4 4 7 6 8 8 7 7 6 6 6 5 5 4 3 3 2 3 3 3 6 8 7 6 7 6 5 7 11 8 7 5 3 2 5 1 1 7 9 12 8 4 2 1 2 3 1 1 1 2 3 2 2 1
11 10 10 10 9 8 9 10 11 11 11 9 8 9 10 8 9 9 7 9 8 8 7 7 5 6 7 3 3 2 3 4 3 3 6 7 8 6 6 6 7 7 8 8 8 6 4 4 5 5 7 7 7 6 5 6 6 10 9 8 7 7 2 2 4 2 4 5 7 12 12 9 5 4 4 2 3 1 2 2 2 4 2 2 1
11 10 10 8 9 9 10 9 10 9 8 7 7 8 7 8 8 7 7 6 7 7 6 5 4 3 3 3 2 3 4 4 7 5 6 4 4 6 7 7 9 10 9 7 9 9 9 8 6 7 8 7 7 8 5 3 5 6 6 6 7 3 3 3 4 3 3 1 8 14 12 10 8 7 4 4 4 2 3 4 5 4 2 2 2
9 10 9 9 10 10 9 9 9 8 9 7 7 7 7 7 6 7 6 7 6 5 5 4 4 5 4 3 4 3 5 3 6 3 3 3 3 4 4 5 6 6 11 6 6 6 8 7 7 7 7 7 7 7 4 4 4 5 5 5 4 3 4 5 3 4 2 2 8 14 13 11 9 8 6 7 7 5 5 5 6 4 4 3 1
10 10 10 10 10 10 9 9 8 8 7 7 7 7 7 6 7 7 6 5 6 5 5 5 5 5 4 3 2 3 3 8 3 1 2 5 4 5 5 4 3 6 9 7 4 5 6 7 6 7 7 7 5 4 3 4 3 4 4 2 4 4 5 4 4 2 4 2 9 13 13 12 9 9 9 7 8 6 4 5 6 7 5 5 4
9 10 9 9 9 10 9 9 8 8 8 7 7 7 6 6 6 7 7 6 5 5 5 4 5 5 3 2 2 1 1 1 5 7 5 7 7 8 9 8 5 2 0 3 0 2 3 2 2 4 4 5 4 4 5 5 5 7 4 4 4 5 5 5 4 5 4 5 9 15 14 12 11 10 9 9 7 3 7 7 8 7 5 5 5
10 11 9 9 9 11 9 9 8 9 7 8 8 7 7 7 7 7 6 6 6 6 5 4 4 4 3 2 1 1 0 1 2 1 1 1 2 2 3 1 1 2 1 2 2 3 3 1 2 4 3 5 5 5 5 6 3 4 5 6 6 6 5 6 5 5 5 6 5 12 14 14 12 12 11 11 8 9 9 9 8 9 8 7 7
10 10 9 9 10 9 10 10 9 10 9 8 9 7 8 7 7 6 6 6 5 5 5 5 4 3 2 1 1 0 1 0 1 1 1 1 1 1 1 0 1 1 1 1 2 3 3 3 2 5 4 4 5 5 5 6 4 4 6 6 7 7 6 6 6 7 7 5 4 10 13 14 13 12 11 11 10 10 9 9 9 9 8 8 7
11 10 10 9 10 10 11 10 10 9 9 8 7 8 8 7 7 7 7 6 5 5 5 4 2 2 2 1 1 1 1 1 1 1 1 1 1 1 1 1 1 1 2 1 1 2 4 3 3 4 6 3 4 5 5 5 6 6 5 5 4 5 6 7 6 6 7 6 5 9 12 12 14 12 13 12 13 12 10 9 11 10 10 10 9
10 11 10 10 9 10 10 11 10 9 8 8 7 7 7 7 7 6 7 5 4 4 3 3 3 2 2 2 1 1 1 1 1 1 1 1 1 1 1 1 1 2 2 2 2 3 2 3 4 4 4 5 4 5 4 5 6 6 6 6 5 5 6 7 8 7 7 6 5 5 9 13 13 14 13 12 12 13 12 11 11 11 11 11 11
11 11 10 10 10 11 11 11 10 9 8 8 7 7 7 6 5 4 4 4 2 3 2 4 3 3 3 3 1 1 1 1 2 2 2 1 1 2 1 1 2 2 2 3 3 3 4 3 4 5 5 5 5 5 4 5 6 6 6 7 6 6 6 5 7 6 7 7 7 4 5 9 12 12 14 14 13 13 12 13 11 12 12 12 12
10 10 10 10 11 11 10 9 9 8 8 8 7 5 6 4 2 5 5 5 4 4 5 4 3 3 3 2 2 1 1 1 1 3 3 2 3 2 2 1 1 2 2 3 4 4 4 4 4 4 5 5 4 5 5 6 6 6 6 6 6 8 7 6 6 6 5 6 6 4 7 5 9 13 15 15 15 13 14 13 13 12 13 13 13
10 8 10 11 8 7 6 6 7 6 6 5 4 3 2 3 5 4 5 8 7 4 4 4 4 3 3 3 2 1 2 2 2 2 3 2 1 2 3 2 2 3 2 2 3 4 4 5 5 5 4 4 5 4 4 5 5 6 6 6 6 6 6 8 8 7 7 4 6 6 8 4 4 6 9 15 14 14 14 14 14 13 14 14 14
8 9 10 9 8 6 5 5 5 4 5 3 3 4 1 3 3 4 5 5 5 4 4 4 3 2 3 4 2 2 3 3 3 3 3 2 2 1 2 1 2 3 4 2 4 5 5 4 5 5 5 4 6 5 4 5 5 6 6 5 7 6 8 6 7 8 8 7 7 7 3 7 6 4 6 6 10 14 15 15 15 14 14 15 15
7 7 9 8 7 5 4 5 4 5 5 5 3 6 6 3 3 4 6 4 4 5 4 4 4 3 2 3 3 3 3 3 3 3 3 3 3 3 2 2 3 4 3 3 4 5 7 5 5 7 6 7 6 9 6 4 4 6 6 5 7 8 5 7 7 9 10 7 6 6 6 6 7 6 9 4 5 10 16 15 15 14 14 15 15
4 8 8 7 6 5 4 4 5 5 4 3 4 3 1 6 5 6 6 5 5 5 4 4 4 3 3 4 4 3 3 4 4 4 3 3 3 3 5 6 6 5 6 5 5 4 5 7 8 8 7 6 5 7 8 8 7 7 6 7 7 6 8 7 7 8 9 8 9 9 7 4 8 6 3 5 6 4 12 17 16 16 15 14 15
6 8 7 3 3 4 3 1 2 3 3 2 2 1 2 3 6 5 7 6 6 5 5 5 5 4 5 5 4 5 4 4 4 4 3 3 4 5 4 5 4 5 4 4 4 4 4 4 5 7 10 9 6 6 6 3 6 8 7 8 7 7 7 8 8 9 8 9 8 8 7 5 2 7 7 8 6 9 4 11 17 16 16 15 14
7 7 5 5 3 3 1 2 2 2 1 2 2 5 8 7 7 5 7 7 6 6 6 5 5 5 5 6 5 5 5 4 4 4 3 5 5 4 3 4 3 2 2 5 5 5 4 4 5 6 7 8 9 8 6 7 7 7 9 8 9 9 7 8 8 8 9 9 9 9 9 8 7 7 5 6 4 6 6 7 10 10 12 16 15
6 5 7 6 5 1 1 1 1 3 4 2 4 5 5 6 6 7 7 7 7 7 6 6 6 6 6 6 5 5 5 4 5 5 5 4 3 3 4 4 3 4 3 5 6 5 5 6 5 5 6 7 9 7 7 8 9 5 9 10 10 9 10 8 8 9 8 8 8 7 8 8 7 5 6 4 5 5 4 4 8 8 9 14 20
6 6 6 8 5 4 2 2 1 2 2 3 8 7 5 5 5 6 6 6 7 7 7 7 7 7 8 7 7 6 7 7 7 6 6 6 5 4 4 4 5 5 5 3 5 6 5 3 3 5 5 7 7 8 6 7 9 8 6 8 9 9 8 8 8 8 8 7 6 7 6 7 6 6 4 3 4 5 4 4 5 8 9 8 12
5 7 6 6 7 5 3 3 2 3 3 7 2 1 2 4 4 6 7 7 7 7 7 7 8 7 8 7 7 8 8 8 8 8 7 9 7 6 7 7 7 7 7 7 8 7 7 6 5 6 5 6 6 4 5 6 7 7 9 9 8 6 8 7 7 6 4 7 6 6 7 8 8 8 6 6 8 5 8 7 7 6 5 11 8
9 7 6 6 3 4 4 2 0 6 7 4 4 3 4 5 6 6 7 8 8 8 8 7 8 8 7 7 7 8 8 8 9 8 8 9 9 8 8 8 9 9 8 7 7 7 7 8 8 6 7 7 6 4 5 5 7 8 10 10 6 8 3 4 5 7 6 7 7 8 8 8 9 9 6 5 5 7 8 5 7 5 7 8 9
7 7 7 7 5 3 5 3 4 7 2 3 3 7 9 8 9 9 8 8 8 8 8 7 7 7 8 7 7 7 8 8 9 9 8 8 8 8 7 7 8 8 8 8 9 9 9 10 10 10 8 9 6 6 6 6 6 8 8 8 11 8 8 1 4 7 9 9 7 7 7 7 8 9 7 5 7 8 8 7 9 8 7 7 7
9 6 6 6 4 4 1 4 3 4 7 5 1 6 8 9 9 9 9 9 7 6 6 6 6 6 6 7 7 8 8 8 8 9 8 8 8 8 8 8 8 8 7 7 7 8 8 9 10 9 10 9 10 8 7 7 8 6 6 6 6 7 8 9 10 9 5 5 7 9 8 8 8 8 7 8 8 7 9 9 8 8 8 8 7
8 7 8 7 6 3 6 6 4 1 2 3 4 5 6 7 7 6 6 7 7 5 5 5 5 5 5 6 7 8 8 8 8 9 9 8 8 8 8 8 8 8 7 7 7 7 8 9 9 8 9 10 9 10 10 7 7 7 3 3 4 6 9 12 11 7 8 9 9 8 8 8 7 8 7 8 8 7 7 9 7 6 7 7 6
8 7 5 7 5 6 7 6 5 5 5 5 5 6 7 7 6 6 5 5 6 6 6 6 5 5 5 5 6 7 7 7 7 7 7 7 7 7 7 7 7 6 7 6 8 9 8 8 9 9 9 8 9 8 10 10 9 7 9 9 8 7 9 8 8 11 10 8 9 9 10 10 9 8 9 9 9 9 7 8 8 7 7 6 8
12 9 6 3 7 6 6 6 6 6 6 6 8 6 6 5 7 6 5 6 6 6 6 5 5 5 5 5 5 6 8 8 8 8 8 8 7 7 6 6 6 6 6 6 7 7 7 7 8 9 9 8 9 8 9 8 9 8 10 10 11 10 9 8 8 9 9 11 13 11 11 10 8 7 9 10 10 10 9 7 9 9 8 11 11
12 11 9 8 7 7 7 7 7 7 6 7 7 9 6 8 5 5 6 5 5 5 5 4 5 5 5 5 5 6 6 7 8 7 6 7 7 7 7 7 7 7 6 6 7 8 8 8 9 9 9 9 8 9 8 9 9 9 10 10 10 9 10 9 9 8 8 10 11 11 12 11 9 8 8 9 9 9 10 10 10 10 9 8 5
10 11 10 9 8 8 10 9 8 7 7 8 7 7 7 5 6 6 6 5 4 4 4 5 5 4 5 6 6 6 6 6 6 7 7 8 7 7 7 8 8 7 7 7 8 8 8 8 9 8 9 9 8 7 8 8 8 8 9 9 9 11 11 11 9 12 11 11 11 13 12 14 13 11 10 10 12 11 11 10 10 11 10 9 8
11 10 9 8 8 8 8 7 8 7 7 7 7 7 6 6 5 6 6 6 4 4 4 4 4 5 6 6 6 6 6 6 6 7 7 7 8 8 7 8 7 7 7 8 8 8 7 8 8 8 9 9 8 8 9 8 8 8 9 7 8 7 7 8 9 10 10 10 12 13 13 13 14 14 12 13 13 13 13 12 11 11 10 9 10
Wind_Direction
111 120 117 123 121 121 118 113 111 110 108 107 108 109 111 111 109 107 107 109 109 110 112 110 102 99 94 95 93 91 88 88 86 86 84 84 85 83 91 98 97 98 98 98 94 90 93 90 88 82 79 78 77 74 73 76 79 82 84 83 85 89 90 81 86 87 92 88 79 85 84 81 79 79 75 59 47 40 32 62 88 70 72 70 62
121 117 123 125 123 119 118 117 114 111 110 110 111 110 109 109 111 114 112 112 114 113 109 100 100 98 96 92 88 86 86 85 84 84 84 86 89 91 88 92 96 102 106 101 99 99 95 91 88 85 79 79 76 76 75 77 79 80 82 82 76 75 78 89 95 97 104 102 92 85 84 82 77 73 66 58 49 41 39 38 42 72 70 65 59
115 120 122 125 124 121 119 117 115 113 113 113 114 114 114 114 116 117 115 115 116 109 104 107 102 96 95 93 89 86 83 81 81 81 84 87 88 91 91 90 89 90 99 101 100 98 97 96 93 91 86 79 79 78 79 79 77 77 77 78 75 74 74 76 85 99 114 129 129 116 99 82 79 80 73 66 57 50 47 45 44 55 61 56 58
120 120 119 124 124 120 120 118 117 116 114 114 113 115 114 115 115 114 116 109 104 108 111 106 99 96 93 89 86 85 83 82 77 74 76 83 87 88 89 89 98 105 102 100 100 102 101 96 91 86 85 81 81 81 83 83 84 79 84 83 78 73 72 66 67 109 134 150 143 143 112 98 80 69 72 68 65 60 57 59 65 62 63 63 52
121 121 125 129 127 121 121 120 119 116 115 116 116 114 115 114 112 110 108 110 109 109 104 99 95 92 90 86 84 83 83 79 74 71 70 75 82 88 94 92 92 99 103 99 98 96 96 97 94 90 86 82 80 83 84 90 91 90 91 91 80 74 65 60 83 191 214 172 188 232 87 88 83 71 74 76 76 72 66 67 66 59 61 72 71
120 127 129 127 124 124 122 123 121 117 116 117 117 116 115 114 113 112 112 109 108 106 104 100 98 95 91 90 91 85 84 82 76 73 71 72 79 83 87 89 90 95 96 98 96 100 101 97 96 92 84 83 83 84 88 94 96 97 94 94 88 79 57 354 296 280 270 243 237 237 94 97 92 89 75 75 70 67 66 60 57 57 62 89 97
127 131 125 123 124 125 125 126 124 121 119 119 117 116 116 116 115 113 112 110 111 109 104 99 95 93 92 91 86 86 83 79 77 74 73 75 76 81 83 88 90 88 95 99 101 100 96 94 92 89 83 82 83 85 96 97 104 101 104 98 103 89 73 302 288 278 272 279 224 129 108 92 91 92 74 71 68 59 60 61 55 49 36 42 39
133 129 124 119 122 129 128 125 124 123 122 118 119 119 119 119 117 114 113 113 109 107 105 103 98 95 92 90 87 84 81 81 80 77 73 73 74 76 80 84 89 93 95 97 101 94 88 86 84 85 86 86 94 96 97 107 105 110 106 111 106 139 186 267 282 284 272 268 78 87 84 88 97 95 82 68 57 47 34 66 69 50 38 33 35
136 129 114 115 122 129 126 125 126 126 122 123 121 120 120 120 119 116 113 111 112 106 100 100 96 92 90 87 86 85 85 83 81 79 78 75 76 78 80 82 77 79 80 80 75 82 82 81 77 77 81 80 88 116 113 119 113 115 112 115 131 170 233 244 249 259 265 209 125 93 52 117 102 95 77 66 53 49 33 80 118 95 57 30 32
125 114 112 120 127 126 123 126 126 124 124 124 122 122 121 121 120 118 115 114 109 107 106 100 96 93 89 88 87 87 86 84 81 80 80 80 80 79 76 76 79 82 93 94 91 84 85 79 74 69 62 66 87 110 138 125 130 117 133 135 189 227 243 267 283 282 282 58 50 47 44 29 84 76 70 70 66 55 51 47 51 50 49 56 64
119 118 116 120 124 122 123 126 129 129 126 124 125 122 121 123 123 121 120 116 110 107 104 99 96 95 92 91 88 88 88 85 82 82 83 84 85 84 83 80 72 68 81 88 93 88 78 72 62 46 47 58 91 117 139 147 135 144 132 179 201 243 260 266 272 273 123 95 90 98 82 76 70 71 89 82 66 60 62 53 53 49 45 51 46
121 113 111 114 125 119 123 130 129 128 127 125 124 124 124 124 124 124 123 117 113 109 105 101 99 98 94 89 86 87 86 85 84 82 82 82 86 87 86 85 83 79 74 82 89 92 81 72 52 43 35 62 99 126 140 153 148 149 167 181 228 251 262 274 273 275 69 62 54 73 73 78 79 76 66 71 69 60 51 43 46 49 54 50 43
116 112 115 126 128 124 129 130 131 130 129 128 126 126 125 127 128 126 119 115 113 108 107 105 101 97 96 94 94 92 89 88 88 86 84 86 85 85 84 85 88 89 90 93 100 97 100 78 46 38 52 70 97 136 146 151 162 150 175 204 248 256 260 266 273 266 71 83 121 114 92 80 82 83 70 67 81 70 44 54 49 64 52 48 48
124 120 126 128 127 130 127 127 128 129 126 126 125 125 125 126 125 120 116 118 110 106 105 105 103 99 95 93 93 94 95 96 95 92 91 89 85 82 83 86 90 94 93 99 106 99 90 72 34 37 56 92 125 133 153 156 159 176 174 220 252 270 283 284 263 62 71 94 28 60 82 79 78 83 90 80 61 64 66 57 57 51 38 35 41
127 128 130 127 131 133 128 125 124 116 111 104 102 103 113 116 118 117 116 117 113 109 107 106 105 100 94 95 94 96 96 93 92 94 93 92 89 86 81 86 90 96 105 103 103 103 89 59 27 31 70 118 126 153 153 158 172 179 195 227 254 267 285 291 302 66 78 20 155 119 93 100 99 116 100 100 77 69 68 75 50 60 48 47 42
128 130 132 138 133 133 137 129 114 105 100 101 103 111 119 120 122 122 120 118 114 115 113 108 103 100 98 97 97 95 95 92 91 92 92 87 83 84 86 85 87 95 112 117 107 104 94 45 32 36 59 130 156 156 163 172 175 200 217 236 255 272 273 286 291 114 116 137 95 104 102 92 87 112 123 105 94 92 97 105 83 55 358 53 39
133 135 140 136 138 138 134 141 124 112 105 104 108 111 118 122 125 126 127 125 120 119 115 112 107 103 105 103 102 100 97 94 88 88 89 83 82 84 88 88 84 93 110 115 110 106 75 28 35 31 51 154 165 165 176 181 193 209 226 265 275 280 282 288 287 62 40 31 5 78 105 108 104 85 117 103 120 89 82 77 55 41 39 47 53
140 140 137 143 144 139 140 135 138 137 127 115 111 110 112 117 121 126 129 126 121 119 117 113 111 111 111 113 113 110 107 109 106 97 84 86 91 90 94 95 94 94 99 113 119 104 83 35 10 30 50 156 174 173 177 195 194 202 247 272 280 282 289 295 289 108 72 257 106 74 75 97 124 131 101 102 51 30 309 55 46 32 43 47 27
139 138 141 144 144 140 139 143 145 138 139 135 134 116 111 113 116 127 129 126 121 119 119 119 121 122 121 131 129 133 130 125 127 116 107 101 102 105 81 91 100 102 103 107 147 145 134 335 16 12 99 160 170 176 183 183 199 212 242 272 269 277 283 288 270 144 172 160 71 88 91 103 103 136 127 108 58 12 268 76 313 122 50 29 24
132 139 147 142 141 141 145 148 144 141 140 137 134 135 122 116 117 127 128 127 125 124 129 135 132 133 141 146 162 152 150 145 148 138 132 110 75 72 96 95 106 106 109 117 122 197 241 255 349 343 82 177 173 177 179 186 192 210 244 255 265 279 278 259 329 352 60 53 354 88 106 115 133 146 185 117 117 304 229 44 259 53 208 38 32
139 140 139 137 135 145 146 142 138 138 133 133 134 130 128 131 130 121 127 129 133 145 146 142 145 147 163 185 174 201 154 135 183 120 161 132 117 136 127 120 119 121 129 131 145 186 233 291 300 321 267 178 178 175 184 192 198 209 223 247 263 270 266 328 311 224 309 110 122 95 122 119 180 316 86 336 37 196 47 14 47 253 247 91 13
146 140 137 145 147 153 142 140 140 136 138 139 131 133 142 156 145 138 139 142 156 160 163 161 157 155 186 190 199 175 152 130 136 148 149 131 143 138 145 140 142 146 142 151 155 176 229 249 274 255 270 209 180 189 181 194 209 218 237 255 256 255 251 296 330 308 295 205 94 121 125 138 167 197 293 161 168 171 199 341 299 353 295 292 22
148 143 144 150 149 138 137 137 135 137 140 136 133 135 147 146 153 157 148 167 162 179 172 167 171 177 179 150 160 190 109 131 129 79 91 87 119 154 150 164 160 163 173 169 173 182 211 230 248 260 249 236 214 219 185 176 188 197 234 242 248 258 345 312 280 284 278 60 97 127 128 153 178 198 171 209 203 248 179 216 260 266 335 276 217
146 146 141 144 145 138 127 130 132 137 142 132 134 149 152 151 150 161 156 163 179 188 171 165 172 79 136 189 135 161 139 84 63 73 132 117 129 171 183 185 188 187 187 189 187 189 190 207 224 247 250 226 219 236 206 213 184 187 206 232 244 255 253 250 269 267 335 100 113 139 141 157 188 220 191 207 214 166 173 223 219 244 239 304 200
143 139 143 140 134 131 136 133 138 143 138 140 157 150 149 157 155 141 161 168 165 159 162 155 137 178 170 173 174 161 116 118 139 200 192 191 180 186 189 202 198 203 186 217 195 174 194 188 194 211 226 233 230 241 274 183 204 216 218 242 286 279 283 253 235 285 271 100 136 149 148 169 183 206 224 212 197 212 215 229 245 234 221 215 269
145 151 140 136 134 133 143 139 143 157 143 159 151 138 164 150 144 146 165 159 152 155 156 169 164 173 190 172 169 154 166 134 168 244 235 238 185 188 193 205 212 236 183 226 205 181 192 200 187 194 220 239 250 277 265 284 259 219 265 235 252 261 255 285 281 266 250 229 144 150 159 168 189 199 213 244 186 206 187 219 230 227 220 197 224
152 131 139 137 135 136 134 149 152 144 156 145 127 156 156 145 149 156 158 147 161 156 166 155 161 176 178 160 163 195 209 172 153 182 201 175 186 195 190 199 206 216 245 272 185 240 277 246 239 214 241 252 250 261 242 243 271 304 291 281 270 285 278 263 267 250 245 232 146 161 161 173 185 202 211 217 227 186 188 214 227 242 196 192 223
138 143 138 140 147 130 140 157 144 150 139 141 164 154 146 153 146 154 163 145 148 155 162 161 156 163 165 169 186 247 226 237 191 279 138 310 336 24 333 8 211 237 139 298 249 231 244 281 294 277 231 241 237 226 262 266 230 255 282 299 284 257 271 293 296 289 289 273 160 163 167 171 185 198 206 217 228 206 208 202 221 228 217 219 227
145 147 142 141 144 147 150 147 150 149 154 164 154 151 149 149 155 161 140 158 159 157 154 157 171 153 157 167 154 233 246 269 304 191 230 272 351 323 338 358 318 349 304 251 299 321 267 257 238 269 232 247 222 227 241 254 250 240 248 236 271 289 287 291 283 289 277 281 244 167 164 170 183 192 206 223 233 231 219 205 214 226 234 223 223
149 140 144 145 151 155 148 153 158 156 156 165 150 146 149 150 156 160 146 169 156 149 157 153 154 139 146 166 167 186 282 269 259 291 309 3 303 13 294 332 359 302 301 312 299 274 311 286 266 253 289 267 268 240 221 236 234 248 264 275 243 271 310 285 274 275 291 291 289 129 183 174 179 195 203 212 223 233 231 217 211 219 227 224 217
145 142 147 150 153 154 153 155 157 154 156 155 150 148 147 154 149 151 158 152 124 137 164 140 156 148 120 108 99 47 291 7 345 331 326 327 357 265 11 348 317 11 323 324 327 301 270 281 272 284 280 286 288 297 284 268 268 251 232 242 271 291 245 237 261 257 266 259 271 146 184 181 187 190 202 207 217 227 236 229 221 213 222 225 222
149 153 155 147 156 156 152 156 151 155 156 149 147 146 149 134 110 66 56 52 136 157 177 159 136 115 121 123 119 140 349 32 350 327 340 354 345 4 336 343 342 325 340 333 312 317 298 281 287 285 285 293 285 280 278 281 275 277 291 273 259 244 254 269 277 319 287 295 311 285 155 196 191 191 197 203 210 220 230 237 231 214 216 230 223
151 159 142 144 153 148 149 148 153 152 152 150 144 134 126 116 130 136 144 149 218 189 192 133 130 124 125 116 122 131 278 53 354 350 355 356 20 326 339 334 307 339 336 321 303 286 272 255 233 232 251 247 261 271 285 289 286 287 286 284 275 273 287 293 292 244 253 269 252 201 238 194 199 200 199 199 204 212 223 230 237 222 216 226 228
146 142 136 145 132 131 133 140 145 144 145 141 116 109 128 129 158 171 168 169 190 184 128 131 129 130 117 106 111 68 70 23 3 15 345 353 5 326 343 323 344 334 299 279 283 283 288 305 295 269 248 260 264 256 238 244 266 288 274 285 296 275 286 289 278 291 295 292 288 312 286 274 243 216 203 201 202 207 211 224 229 233 218 224 232
127 138 138 116 122 128 132 131 140 131 135 114 148 124 287 194 153 189 182 159 141 132 137 124 128 131 133 113 63 50 32 21 13 358 349 325 320 304 298 342 2 313 296 355 324 323 289 293 316 314 315 307 280 268 281 287 279 266 285 277 267 306 287 283 281 289 277 293 282 249 277 291 270 159 212 191 211 209 215 216 220 228 227 224 230
101 139 129 120 131 129 132 137 144 161 156 142 173 147 172 226 218 174 144 143 127 124 120 110 105 105 114 91 61 41 32 28 2 1 339 335 328 332 335 6 337 292 330 337 335 326 320 322 319 317 321 309 319 319 295 275 285 282 282 292 289 285 295 282 309 296 285 266 277 302 257 236 243 245 151 235 217 211 211 215 220 219 228 230 229
138 137 124 122 130 129 108 139 163 171 158 155 183 167 208 176 190 152 127 128 120 110 106 102 89 78 57 71 63 45 30 33 6 13 347 331 339 323 22 352 331 345 345 337 314 308 343 341 329 316 300 299 317 300 301 339 311 296 276 279 282 272 274 278 263 269 282 285 287 279 267 238 285 272 256 189 216 250 200 213 216 218 223 227 231
116 91 77 103 114 133 127 132 166 157 138 187 97 37 259 250 163 145 125 111 99 91 83 80 71 68 64 62 49 61 43 34 15 11 353 331 346 356 24 359 340 331 347 301 306 344 355 347 341 318 322 317 305 302 319 301 306 290 297 285 276 275 277 280 280 278 272 280 268 260 269 270 256 283 247 236 205 191 216 213 215 219 219 222 225
104 101 116 116 68 29 170 165 259 130 212 178 155 185 196 207 129 124 111 102 93 75 75 73 69 71 61 64 56 53 43 31 26 16 2 11 6 340 16 331 349 301 301 307 331 342 352 343 321 322 310 297 305 312 319 302 286 307 305 311 294 282 275 273 282 276 282 281 286 286 292 279 269 257 240 255 240 224 159 212 220 219 222 220 224
106 138 130 109 85 187 176 196 201 230 174 159 187 249 207 178 134 119 100 91 86 87 79 75 70 63 63 58 55 57 47 38 25 30 17 23 358 354 7 355 325 325 336 342 336 331 337 335 331 318 311 314 313 315 305 316 316 325 291 288 272 266 271 272 281 284 286 281 277 282 276 275 274 261 245 228 246 267 210 190 229 232 239 210 211
91 132 136 128 138 182 183 137 46 1 334 231 234 209 184 120 106 96 110 104 99 97 85 78 71 64 58 55 52 50 47 38 35 28 20 16 9 1 6 348 345 346 9 347 314 329 316 357 321 291 306 312 313 309 328 324 310 302 286 279 281 269 270 274 259 279 284 280 278 278 272 275 267 264 252 136 253 231 260 201 233 238 244 244 192
144 148 143 129 140 160 159 101 111 12 289 269 323 192 257 94 113 105 96 92 92 89 84 72 71 62 49 48 50 43 39 36 25 23 25 27 15 6 9 1 3 3 345 346 329 326 344 337 329 318 311 283 282 326 343 331 309 325 311 305 293 278 267 251 264 248 272 285 275 271 275 273 266 255 230 194 205 206 230 210 216 214 224 249 226
137 133 114 116 121 123 99 126 217 187 213 241 248 88 48 80 85 94 86 81 70 73 78 76 75 73 60 52 45 37 31 33 26 22 23 19 10 10 10 9 10 3 357 0 345 360 352 341 338 331 322 308 330 329 342 331 307 325 304 297 306 313 300 285 286 277 261 269 277 273 277 274 280 286 291 229 231 220 238 206 229 203 248 254 251
94 92 104 103 79 71 141 212 209 225 287 158 231 107 97 95 86 80 86 85 90 92 89 85 82 75 65 51 50 45 38 34 30 29 30 23 17 12 8 13 11 8 360 356 4 5 4 356 353 350 343 329 328 328 343 321 321 332 326 327 317 303 314 98 315 304 298 282 269 283 280 286 296 293 272 243 203 236 249 229 224 203 204 246 245
84 89 73 84 101 149 148 223 204 199 166 170 160 110 106 96 96 95 100 107 107 98 95 85 74 68 65 47 41 40 39 37 38 36 33 29 23 17 11 11 11 6 3 5 6 359 10 0 359 350 353 351 336 336 330 336 324 345 318 329 322 308 330 331 333 305 316 312 297 288 291 292 287 289 290 284 277 250 255 255 248 240 198 208 220
97 91 93 97 139 152 174 174 197 201 118 128 130 98 93 86 95 104 100 106 100 91 80 76 74 60 60 71 57 49 49 40 41 39 35 28 24 18 16 13 13 6 6 3 7 3 4 6 2 354 352 1 354 340 344 351 343 306 333 294 264 295 314 318 317 314 316 308 303 296 301 291 279 274 278 285 281 278 272 275 252 248 242 234 214
87 89 82 98 107 158 166 143 122 131 137 110 107 99 85 85 79 82 79 88 94 79 73 71 71 68 63 58 51 37 33 33 26 23 24 22 19 20 17 11 8 9 356 4 10 4 358 1 357 357 357 357 359 346 346 342 346 357 1 334 318 306 297 306 311 315 314 318 312 314 305 296 302 307 304 302 298 289 282 273 271 249 253 213 215
112 105 105 100 112 127 107 95 88 70 52 54 55 65 95 86 75 64 60 66 75 88 84 83 77 73 65 52 58 53 36 32 33 27 19 18 7 3 360 356 358 3 356 2 355 356 355 357 355 359 352 356 352 357 343 348 350 340 347 340 337 326 326 306 296 303 309 308 310 311 299 301 306 302 294 288 290 290 290 281 270 253 222 221 223
123 121 116 112 105 87 78 82 81 74 69 64 57 42 44 91 82 88 89 92 101 107 106 90 84 73 68 64 63 60 52 37 33 32 25 23 18 15 12 14 11 11 5 9 13 6 3 346 0 2 358 357 359 0 348 350 353 342 340 344 334 337 333 331 331 338 322 310 305 312 315 317 311 299 300 304 300 293 285 279 271 272 261 256 239
127 124 118 120 108 98 94 97 90 76 64 55 55 54 39 60 71 91 93 90 94 96 95 107 108 100 79 77 66 53 48 46 47 40 32 33 29 22 23 24 23 20 16 16 18 14 9 12 21 2 16 3 8 355 356 5 347 340 347 340 341 340 344 345 347 345 335 328 320 320 323 323 318 318 314 302 296 295 292 284 274 261 266 255 241
124 116 109 107 101 94 98 93 81 83 74 66 64 60 52 59 73 71 82 87 84 89 105 98 94 91 87 79 76 70 53 54 52 46 34 25 30 27 21 23 27 21 18 21 18 18 13 22 19 15 24 16 13 359 18 9 358 355 351 349 343 345 337 331 334 340 336 327 324 317 319 317 322 321 319 323 320 309 301 294 281 278 270 263 243